Vertical_Velocity
3 -3 7 -2 2 -6 48 3 7 6 -2 -0 -8 -7 17 -0 -3 4 9 4 28 5 0 -8 7 -12 14 21 18 17 2 7 5 2 -0 1 1 -7 -2 -0 4 1 -1 4
1 -4 -1 -2 -5 -7 23 4 6 5 7 1 -10 -5 22 1 0 -0 8 -2 7 2 -17 9 -2 60 23 14 14 11 21 0 2 9 11 -4 7 8 8 -2 4 -2 3 -1
-1 12 4 12 -10 37 -2 0 0 4 -1 2 -5 16 12 17 9 5 2 4 4 16 12 11 10 6 13 29 16 17 15 11 -6 2 -6 5 1 10 9 5 1 10 9 4
-1 4 -2 9 -4 1 4 -9 7 2 1 -4 1 3 4 -1 -9 -2 0 1 1 -0 10 2 -3 -10 -11 11 -3 -3 -1 6 3 10 14 -1 -4 -1 6 5 2 12 10 7
5 8 -3 2 8 2 1 6 9 -2 -12 1 3 9 7 11 7 -5 6 10 10 4 -4 2 -4 -5 4 9 -9 -19 -4 -1 17 11 4 -19 6 8 -1 9 -4 -4 2 12
12 1 1 4 1 1 1 -1 3 11 -20 -2 6 -1 16 -7 -1 45 -11 -4 -2 1 1 -8 0 -0 -3 -9 -2 -2 10 4 3 1 -4 3 14 -8 -1 9 -3 7 3 8
6 2 1 3 -2 6 0 -6 -7 -8 5 -5 -3 4 2 7 -5 -3 0 16 0 9 8 2 -0 0 -2 -2 5 1 2 -1 -1 -1 3 -1 4 -5 -14 -4 -3 1 -1 -7
-0 11 4 2 3 -3 2 -9 0 0 -3 6 5 3 4 -1 -8 -8 -2 10 5 -4 -6 -5 -5 5 -2 -5 -2 -8 -2 -2 -2 5 -2 0 -3 -0 -6 4 -1 3 2 -1
1 -2 4 -1 4 0 1 17 5 4 4 6 -3 1 7 8 7 -0 5 2 -0 1 3 0 -4 0 -4 -8 -6 -2 -1 3 1 3 -1 3 3 -0 -3 -2 -4 -4 -3 -2
-3 -1 -1 0 27 1 7 0 -1 4 -4 2 -1 3 -1 3 5 -2 -3 -1 2 1 7 2 -2 -1 -2 -0 6 7 4 1 -3 2 -5 3 -1 1 0 2 4 -2 -1 0
1 4 -3 4 1 1 0 -7 -7 -2 -7 1 -9 -1 1 1 -2 -4 4 7 5 4 4 7 6 3 5 5 1 2 -0 -1 2 1 -2 2 -0 -2 -0 -1 -1 1 -1 -1
-0 -0 4 -1 2 2 -6 -4 7 5 -2 -12 -3 -6 -6 -5 -5 2 1 -4 -5 -2 -4 -5 -3 3 4 0 -3 -2 -1 -1 -1 1 1 1 4 3 5 -1 4 1 -0 2
1 -4 -3 1 -0 3 4 5 -1 -4 -3 3 -5 -3 2 1 -2 -1 -1 -0 2 2 -0 -2 -4 -4 -1 3 5 0 2 3 1 1 2 2 1 2 1 3 -1 -1 1 -5
3 -2 -1 -0 -2 -2 -1 3 2 2 0 2 -7 -1 -3 -7 -5 -3 -2 -4 -5 -7 -3 -1 3 2 -5 -5 -4 -1 3 3 3 -0 -3 -3 -5 -3 2 3 1 -1 -1 -0
2 -0 2 1 0 -1 -2 -5 -3 1 -3 -11 -8 -4 -3 -4 -7 -7 -5 -5 -4 -8 -10 -6 -8 -6 1 3 -1 -7 -6 -4 -4 2 3 1 2 2 -1 -2 -3 -3 -1 -1
-4 -4 -2 -1 -4 -3 -3 0 -2 -4 -6 -3 1 -8 -6 -2 -4 -3 -4 -7 -6 1 -2 -2 -2 -4 -6 -6 -3 4 1 -0 -0 -3 -4 -4 -3 -1 -1 0 -1 -1 -1 1
-4 -4 0 -5 -3 -3 -1 -5 -2 -4 -2 -0 -3 -0 1 -5 -5 -2 -1 2 -0 -7 -8 -5 -0 3 6 8 5 3 -0 -5 -2 0 -3 0 1 -0 -0 3 3 -0 -0 -4
-4 -4 -1 -5 -4 -3 -3 -5 -6 -3 -3 -5 -6 -6 -4 -6 -12 -3 -1 -0 1 3 2 0 -0 -2 -3 1 0 2 2 1 -1 1 -2 -4 3 1 -0 1 0 2 1 2
-3 -4 -3 -3 -5 -4 -6 -4 -6 -6 -4 -9 -8 -6 -6 -4 -2 -12 -1 -3 -4 -1 4 6 5 7 10 10 3 11 12 5 1 4 2 -0 -2 -0 -0 1 0 1 3 0
-3 -2 -1 -2 -4 -3 -4 -6 -5 -4 -3 -8 -7 -7 -6 -8 -11 -4 -5 -1 -2 -4 -5 -5 6 7 7 7 -0 3 11 2 11 4 2 -2 -1 -1 3 3 -4 4 2 2
-1 -3 -1 -2 -2 -2 -3 -3 -7 -5 -4 -5 1 -6 -4 -6 -10 -7 -7 -6 -13 -6 -3 -3 -4 2 8 3 -12 -0 -0 9 2 10 7 4 1 3 3 -0 1 5 1 3
-1 -0 -2 -2 -1 -1 -1 -1 -5 0 -2 -2 -5 -2 -5 -3 -1 -6 -6 -4 -7 -0 3 -0 -1 10 10 -1 -3 -4 -3 7 1 -3 5 4 2 5 2 -1 -0 1 0 -1
-2 1 0 0 -0 -1 -0 -1 -1 -2 -2 -2 -4 -3 -5 -8 -2 -6 -3 -2 -0 -0 6 10 -6 -5 0 9 10 -3 16 -5 5 4 0 2 -2 3 1 3 2 -1 -2 -1
-1 0 1 2 2 0 -2 -1 -1 0 0 -1 -2 -2 1 -4 -5 -4 -6 -2 -7 -4 -1 3 -5 -4 -3 1 -5 1 -2 -2 3 5 5 -0 -0 4 3 2 1 1 1 0
-0 -2 -1 -1 -2 -1 0 0 -1 0 1 0 0 -1 0 -4 -4 -8 -4 1 3 -2 4 -1 -1 -1 -4 2 -4 1 -2 -3 -3 -0 1 2 -2 2 2 -0 0 -0 -1 -1
-1 -3 -1 -1 -2 -1 -2 -2 -2 -1 -2 -1 -2 -0 -5 -1 -3 0 2 3 1 2 1 1 -4 -5 -1 -1 -3 12 -0 -1 -3 -2 -1 -0 1 5 0 25 13 -1 -1 2
Height
5559 5556 5555 5554 5556 5560 5569 5577 5595 5610 5620 5628 5640 5650 5654 5670 5681 5691 5700 5709 5716 5723 5736 5742 5748 5757 5763 5765 5770 5773 5779 5785 5788 5789 5795 5801 5802 5806 5809 5814 5817 5819 5823 5827
5562 5558 5557 5556 5557 5564 5573 5582 5597 5610 5618 5628 5639 5649 5656 5668 5677 5686 5696 5703 5711 5720 5730 5734 5740 5744 5749 5759 5763 5769 5772 5777 5783 5786 5792 5795 5797 5800 5805 5808 5813 5811 5814 5817
5564 5562 5561 5561 5563 5569 5576 5590 5602 5613 5620 5630 5637 5649 5660 5661 5670 5683 5694 5700 5707 5715 5723 5726 5731 5738 5744 5750 5755 5761 5764 5772 5776 5779 5786 5789 5791 5796 5797 5801 5803 5804 5806 5809
5568 5564 5564 5565 5571 5578 5588 5598 5609 5618 5624 5633 5645 5657 5656 5660 5671 5681 5691 5699 5706 5712 5716 5720 5727 5735 5739 5741 5750 5756 5759 5767 5770 5774 5779 5783 5784 5788 5792 5793 5795 5796 5799 5802
5575 5572 5572 5576 5583 5589 5599 5608 5616 5623 5632 5644 5652 5654 5655 5663 5671 5679 5687 5696 5703 5710 5717 5723 5727 5732 5739 5739 5743 5748 5752 5759 5763 5766 5770 5771 5775 5779 5784 5786 5788 5789 5790 5793
5583 5583 5583 5587 5593 5600 5608 5615 5620 5626 5638 5646 5652 5655 5657 5664 5669 5675 5683 5692 5701 5708 5713 5720 5725 5730 5735 5739 5743 5748 5750 5752 5756 5761 5765 5768 5769 5771 5774 5776 5779 5781 5783 5783
5593 5593 5594 5598 5603 5608 5615 5620 5624 5632 5639 5649 5651 5655 5657 5663 5669 5675 5685 5694 5702 5707 5711 5715 5720 5725 5728 5733 5738 5741 5745 5749 5751 5754 5758 5760 5762 5765 5768 5771 5773 5772 5774 5777
5601 5603 5604 5606 5611 5614 5620 5628 5633 5639 5644 5651 5654 5660 5662 5667 5672 5677 5684 5692 5696 5701 5707 5711 5716 5719 5722 5726 5730 5734 5738 5741 5744 5748 5750 5753 5756 5758 5761 5764 5767 5768 5770 5771
5608 5608 5610 5613 5615 5620 5622 5629 5637 5643 5647 5654 5659 5662 5665 5669 5674 5680 5686 5690 5696 5701 5705 5708 5711 5713 5717 5719 5723 5727 5730 5733 5734 5736 5739 5742 5746 5749 5751 5754 5758 5759 5762 5763
5613 5614 5616 5618 5620 5624 5627 5634 5641 5645 5649 5654 5663 5665 5669 5674 5678 5682 5686 5691 5696 5700 5702 5704 5706 5706 5708 5712 5716 5717 5720 5722 5725 5727 5729 5731 5735 5738 5742 5744 5747 5749 5750 5752
5618 5620 5623 5624 5626 5630 5635 5637 5644 5649 5655 5658 5664 5669 5672 5676 5680 5683 5686 5689 5692 5695 5697 5699 5699 5702 5704 5704 5706 5709 5712 5714 5715 5718 5721 5723 5727 5730 5732 5734 5736 5738 5739 5740
5625 5625 5627 5629 5632 5635 5637 5642 5646 5650 5656 5664 5668 5673 5674 5677 5680 5683 5685 5687 5688 5689 5691 5692 5694 5695 5695 5698 5700 5701 5701 5704 5707 5709 5712 5714 5716 5719 5720 5723 5726 5727 5728 5728
5631 5632 5634 5635 5638 5640 5643 5647 5652 5657 5662 5666 5671 5675 5675 5678 5679 5681 5683 5685 5685 5684 5683 5685 5687 5688 5689 5690 5691 5693 5696 5697 5698 5700 5701 5704 5706 5708 5711 5713 5715 5715 5716 5716
5635 5635 5637 5639 5641 5645 5647 5650 5654 5658 5663 5665 5669 5672 5673 5675 5677 5678 5680 5681 5682 5682 5681 5680 5679 5678 5679 5680 5682 5684 5684 5685 5688 5690 5692 5693 5695 5697 5699 5700 5701 5702 5702 5703
5638 5639 5640 5642 5644 5647 5649 5653 5656 5658 5661 5663 5666 5666 5669 5671 5673 5674 5675 5675 5674 5674 5674 5674 5672 5670 5669 5668 5668 5670 5672 5673 5676 5678 5680 5681 5683 5684 5685 5687 5689 5690 5691 5692
5643 5643 5644 5646 5648 5648 5650 5652 5655 5658 5659 5661 5661 5662 5664 5666 5667 5666 5666 5667 5667 5667 5666 5664 5663 5662 5659 5658 5657 5656 5655 5657 5660 5662 5666 5668 5670 5673 5675 5677 5678 5679 5680 5680
5646 5646 5647 5649 5650 5651 5653 5654 5655 5655 5656 5658 5659 5659 5658 5659 5658 5658 5658 5658 5657 5655 5654 5652 5651 5651 5649 5647 5646 5644 5644 5645 5646 5647 5648 5652 5655 5658 5660 5662 5665 5667 5668 5668
5652 5652 5652 5653 5654 5654 5655 5655 5656 5657 5658 5658 5659 5658 5657 5655 5653 5651 5649 5646 5643 5641 5639 5638 5636 5635 5633 5631 5630 5632 5631 5630 5631 5632 5633 5635 5638 5641 5643 5647 5649 5650 5652 5653
5656 5657 5657 5657 5657 5657 5658 5658 5657 5658 5657 5656 5655 5653 5652 5650 5647 5643 5640 5637 5634 5628 5623 5620 5617 5616 5614 5612 5610 5613 5613 5613 5615 5616 5617 5619 5623 5627 5631 5633 5635 5637 5640 5643
5658 5658 5659 5657 5657 5657 5657 5656 5655 5655 5654 5652 5650 5648 5646 5644 5641 5637 5633 5628 5624 5619 5614 5608 5602 5598 5594 5593 5591 5594 5595 5596 5598 5597 5600 5603 5608 5613 5617 5620 5623 5624 5627 5630
5658 5657 5657 5656 5655 5655 5654 5653 5651 5650 5651 5645 5643 5641 5637 5634 5630 5626 5621 5617 5610 5604 5598 5590 5583 5576 5571 5570 5570 5573 5574 5578 5577 5581 5585 5589 5593 5598 5601 5604 5608 5612 5614 5616
5657 5656 5654 5653 5652 5651 5649 5648 5646 5643 5641 5638 5634 5631 5628 5623 5619 5614 5610 5603 5595 5586 5576 5566 5555 5552 5549 5546 5546 5551 5556 5555 5559 5562 5567 5571 5577 5582 5586 5591 5594 5598 5600 5602
5654 5653 5652 5650 5648 5645 5644 5640 5639 5635 5632 5629 5625 5621 5616 5613 5607 5601 5595 5586 5578 5566 5553 5536 5525 5521 5516 5515 5518 5527 5536 5537 5542 5547 5550 5554 5561 5568 5572 5577 5580 5583 5586 5588
5650 5649 5647 5645 5642 5640 5638 5634 5631 5627 5623 5619 5614 5610 5605 5600 5593 5588 5579 5569 5559 5544 5528 5509 5499 5494 5491 5485 5487 5501 5512 5521 5527 5531 5536 5540 5546 5553 5558 5562 5566 5569 5572 5575
5647 5644 5642 5639 5636 5635 5631 5628 5624 5619 5614 5609 5604 5599 5593 5587 5580 5572 5563 5552 5539 5524 5505 5493 5486 5480 5476 5473 5472 5479 5494 5504 5513 5518 5523 5528 5534 5540 5545 5549 5553 5557 5560 5563
5643 5640 5637 5634 5630 5627 5624 5620 5616 5610 5605 5599 5594 5588 5580 5573 5567 5560 5550 5539 5526 5511 5495 5486 5476 5466 5461 5458 5459 5466 5483 5494 5501 5506 5511 5516 5521 5527 5532 5536 5538 5544 5547 5551